| time (UTC) | temp C | wind direction | speed KPH | gust KPH | rain 1hr cm | rain 24hr cm | rain mn cm | humidity % | barometer mb |
| 20260507051053 | 12 | 263 | 1.6 | 4.8 | 0.00 | 0.00 | 0.00 | 90 | 1010.2 |
| 20260507050036 | 12 | 269 | 1.6 | 6.4 | 0.00 | 0.00 | 0.00 | 90 | 1009.9 |
| 20260507045101 | 12 | 254 | 4.8 | 8.0 | 0.00 | 0.00 | 0.00 | 90 | 1009.9 |
| 20260507044051 | 12 | 253 | 3.2 | 6.4 | 0.00 | 0.00 | 0.00 | 90 | 1009.9 |
| 20260507043034 | 12 | 264 | 3.2 | 8.0 | 0.00 | 0.00 | 0.00 | 90 | 1009.6 |
| 20260507042025 | 12 | 264 | 3.2 | 8.0 | 0.00 | 0.00 | 0.00 | 90 | 1009.6 |
| 20260507041045 | 12 | 263 | 3.2 | 6.4 | 0.00 | 0.00 | 0.00 | 91 | 1009.5 |
| 20260507040028 | 12 | 256 | 0.0 | 4.8 | 0.00 | 0.00 | 0.00 | 91 | 1009.6 |
| 20260507035041 | 11 | 287 | 0.0 | 0.0 | 0.00 | 0.00 | 0.00 | 91 | 1009.6 |
| 20260507034023 | 11 | 251 | 0.0 | 0.0 | 0.00 | 0.00 | 0.00 | 89 | 1009.6 |
| 20260507033059 | 12 | 0.0 | 0.0 | 0.00 | 0.00 | 0.00 | 88 | 1009.3 | |
| 20260507032022 | 12 | 0.0 | 0.0 | 0.00 | 0.00 | 0.00 | 88 | 1009.3 | |
| 20260507031020 | 12 | 266 | 0.0 | 4.8 | 0.00 | 0.00 | 0.00 | 88 | 1009.0 |
| 20260507030034 | 12 | 279 | 0.0 | 3.2 | 0.00 | 0.00 | 0.00 | 87 | 1009.0 |
| 20260507025022 | 12 | 263 | 0.0 | 3.2 | 0.00 | 0.00 | 0.00 | 87 | 1008.9 |
| 20260507024022 | 12 | 137 | 0.0 | 0.0 | 0.00 | 0.00 | 0.00 | 86 | 1008.6 |
| 20260507023027 | 12 | 246 | 1.6 | 6.4 | 0.00 | 0.00 | 0.00 | 86 | 1009.0 |
| 20260507022021 | 12 | 246 | 1.6 | 4.8 | 0.00 | 0.00 | 0.00 | 85 | 1008.9 |
| 20260507021021 | 13 | 235 | 3.2 | 8.0 | 0.00 | 0.00 | 0.00 | 85 | 1008.7 |
| 20260507020026 | 13 | 259 | 3.2 | 9.7 | 0.00 | 0.00 | 0.00 | 84 | 1008.3 |
| 20260507015040 | 13 | 252 | 3.2 | 8.0 | 0.00 | 0.00 | 0.00 | 83 | 1008.3 |
| 20260507014034 | 13 | 242 | 6.4 | 11.3 | 0.00 | 0.00 | 0.00 | 84 | 1008.3 |
| 20260507013048 | 13 | 257 | 3.2 | 8.0 | 0.00 | 0.00 | 0.00 | 85 | 1008.2 |
| 20260507012033 | 13 | 0.0 | 0.0 | 0.00 | 0.00 | 0.00 | 84 | 1008.2 | |
| 20260507011029 | 13 | 135 | 0.0 | 0.0 | 0.00 | 0.00 | 0.00 | 83 | 1007.6 |
| 20260507010031 | 13 | 115 | 0.0 | 0.0 | 0.00 | 0.00 | 0.00 | 82 | 1007.7 |
| 20260507005036 | 14 | 257 | 0.0 | 0.0 | 0.00 | 0.00 | 0.00 | 81 | 1007.7 |
| 20260507004048 | 14 | 306 | 0.0 | 0.0 | 0.00 | 0.00 | 0.00 | 80 | 1007.3 |
| 20260507003024 | 14 | 249 | 0.0 | 0.0 | 0.00 | 0.00 | 0.00 | 79 | 1007.3 |
| 20260507002027 | 14 | 194 | 0.0 | 0.0 | 0.00 | 0.00 | 0.00 | 78 | 1007.3 |
| 20260507001021 | 15 | 215 | 0.0 | 0.0 | 0.00 | 0.00 | 0.00 | 77 | 1007.7 |
| 20260507000023 | 15 | 250 | 0.0 | 1.6 | 0.00 | 0.00 | 0.00 | 76 | 1007.1 |
| 20260506235051 | 15 | 197 | 4.8 | 14.5 | 0.00 | 0.00 | 0.00 | 75 | 1007.1 |
| 20260506234048 | 15 | 172 | 4.8 | 11.3 | 0.00 | 0.00 | 0.00 | 75 | 1007.4 |
| 20260506233022 | 15 | 151 | 1.6 | 6.4 | 0.00 | 0.00 | 0.00 | 75 | 1007.1 |
| 20260506232034 | 15 | 232 | 0.0 | 0.0 | 0.00 | 0.00 | 0.00 | 74 | 1007.1 |
| 20260506231023 | 16 | 176 | 0.0 | 4.8 | 0.00 | 0.00 | 0.00 | 73 | 1007.1 |
| 20260506230023 | 16 | 166 | 1.6 | 11.3 | 0.00 | 0.00 | 0.00 | 73 | 1007.4 |
| 20260506225047 | 16 | 194 | 0.0 | 1.6 | 0.00 | 0.00 | 0.00 | 73 | 1007.4 |
| 20260506224051 | 16 | 305 | 0.0 | 1.6 | 0.00 | 0.00 | 0.00 | 72 | 1007.1 |
| 20260506223050 | 16 | 277 | 1.6 | 4.8 | 0.00 | 0.00 | 0.00 | 72 | 1007.1 |
| 20260506222023 | 16 | 272 | 1.6 | 4.8 | 0.00 | 0.00 | 0.00 | 72 | 1007.1 |
| 20260506221021 | 16 | 245 | 1.6 | 4.8 | 0.00 | 0.00 | 0.00 | 71 | 1006.8 |
| 20260506220526 | 16 | 174 | 0.0 | 3.2 | 0.00 | 0.00 | 0.00 | 70 | 1006.4 |
| 20260506215026 | 16 | 182 | 1.6 | 14.5 | 0.00 | 0.00 | 0.00 | 69 | 1006.4 |
| 20260506214054 | 17 | 188 | 1.6 | 8.0 | 0.00 | 0.00 | 0.00 | 69 | 1006.4 |
| 20260506213054 | 17 | 164 | 1.6 | 11.3 | 0.00 | 0.00 | 0.00 | 68 | 1006.4 |
| 20260506212020 | 17 | 178 | 3.2 | 9.7 | 0.00 | 0.00 | 0.00 | 68 | 1006.4 |
| 20260506211025 | 17 | 170 | 3.2 | 14.5 | 0.00 | 0.00 | 0.00 | 67 | 1006.0 |
| 20260506210025 | 17 | 201 | 1.6 | 4.8 | 0.00 | 0.00 | 0.00 | 67 | 1006.0 |
| 20260506205034 | 17 | 175 | 1.6 | 4.8 | 0.00 | 0.00 | 0.00 | 66 | 1006.1 |
| 20260506204027 | 17 | 140 | 1.6 | 4.8 | 0.00 | 0.00 | 0.00 | 66 | 1006.4 |
| 20260506203027 | 17 | 158 | 3.2 | 4.8 | 0.00 | 0.00 | 0.00 | 65 | 1006.1 |
| 20260506202025 | 17 | 169 | 4.8 | 9.7 | 0.00 | 0.00 | 0.00 | 65 | 1006.0 |
| 20260506201047 | 18 | 167 | 4.8 | 12.9 | 0.00 | 0.00 | 0.00 | 64 | 1006.0 |
| 20260506200054 | 18 | 181 | 3.2 | 8.0 | 0.00 | 0.00 | 0.00 | 64 | 1006.1 |
| 20260506195029 | 18 | 175 | 1.6 | 6.4 | 0.00 | 0.00 | 0.00 | 63 | 1006.1 |
| 20260506194059 | 18 | 179 | 1.6 | 9.7 | 0.00 | 0.00 | 0.00 | 62 | 1006.1 |
| 20260506193049 | 18 | 174 | 3.2 | 11.3 | 0.00 | 0.00 | 0.00 | 61 | 1006.1 |
| 20260506192028 | 18 | 163 | 3.2 | 9.7 | 0.00 | 0.00 | 0.00 | 61 | 1006.1 |
| 20260506191028 | 18 | 183 | 0.0 | 3.2 | 0.00 | 0.00 | 0.00 | 61 | 1006.1 |
| 20260506190029 | 18 | 282 | 1.6 | 6.4 | 0.00 | 0.00 | 0.00 | 60 | 1005.6 |
| 20260506185021 | 18 | 179 | 0.0 | 8.0 | 0.00 | 0.00 | 0.00 | 60 | 1005.5 |
| 20260506184025 | 18 | 202 | 0.0 | 0.0 | 0.00 | 0.00 | 0.00 | 60 | 1005.5 |
| 20260506183023 | 19 | 214 | 0.0 | 1.6 | 0.00 | 0.00 | 0.00 | 59 | 1004.9 |
| 20260506182032 | 20 | 157 | 0.0 | 1.6 | 0.00 | 0.00 | 0.00 | 57 | 1004.9 |
| 20260506181058 | 20 | 122 | 1.6 | 8.0 | 0.00 | 0.00 | 0.00 | 56 | 1005.3 |
| 20260506180038 | 20 | 197 | 0.0 | 3.2 | 0.00 | 0.00 | 0.00 | 55 | 1004.8 |
| 20260506175029 | 21 | 190 | 1.6 | 8.0 | 0.00 | 0.00 | 0.00 | 54 | 1004.9 |
| 20260506174036 | 21 | 183 | 4.8 | 9.7 | 0.00 | 0.00 | 0.00 | 53 | 1005.2 |
| 20260506173051 | 21 | 223 | 3.2 | 9.7 | 0.00 | 0.00 | 0.00 | 53 | 1005.2 |
| 20260506172101 | 21 | 198 | 3.2 | 9.7 | 0.00 | 0.00 | 0.00 | 52 | 1005.3 |
| 20260506171101 | 21 | 170 | 4.8 | 16.1 | 0.00 | 0.00 | 0.00 | 53 | 1005.6 |
| 20260506170037 | 21 | 190 | 4.8 | 16.1 | 0.00 | 0.00 | 0.00 | 52 | 1005.4 |
| 20260506165025 | 21 | 163 | 3.2 | 9.7 | 0.00 | 0.00 | 0.00 | 52 | 1005.4 |
| 20260506164036 | 22 | 169 | 4.8 | 9.7 | 0.00 | 0.00 | 0.00 | 51 | 1005.4 |
| 20260506163053 | 22 | 154 | 4.8 | 9.7 | 0.00 | 0.00 | 0.00 | 51 | 1005.7 |
| 20260506162026 | 22 | 152 | 3.2 | 11.3 | 0.00 | 0.00 | 0.00 | 50 | 1005.7 |
| 20260506161023 | 22 | 145 | 4.8 | 9.7 | 0.00 | 0.00 | 0.00 | 49 | 1005.7 |
| 20260506160053 | 22 | 178 | 4.8 | 11.3 | 0.00 | 0.00 | 0.00 | 49 | 1005.7 |
| 20260506155044 | 23 | 198 | 4.8 | 12.9 | 0.00 | 0.00 | 0.00 | 49 | 1005.8 |
| 20260506154045 | 23 | 159 | 4.8 | 11.3 | 0.00 | 0.00 | 0.00 | 49 | 1006.1 |
| 20260506153030 | 23 | 163 | 3.2 | 11.3 | 0.00 | 0.00 | 0.00 | 48 | 1006.5 |
| 20260506152029 | 23 | 154 | 1.6 | 12.9 | 0.00 | 0.00 | 0.00 | 47 | 1006.5 |
| 20260506151031 | 23 | 182 | 1.6 | 6.4 | 0.00 | 0.00 | 0.00 | 50 | 1006.5 |
| 20260506150040 | 23 | 201 | 3.2 | 11.3 | 0.00 | 0.00 | 0.00 | 49 | 1006.5 |
| 20260506145044 | 23 | 162 | 4.8 | 9.7 | 0.00 | 0.00 | 0.00 | 50 | 1006.6 |
| 20260506144049 | 25 | 147 | 4.8 | 8.0 | 0.00 | 0.00 | 0.00 | 50 | 1006.6 |
| 20260506143036 | 24 | 136 | 4.8 | 16.1 | 0.00 | 0.00 | 0.00 | 50 | 1007.0 |
| 20260506142039 | 23 | 181 | 4.8 | 16.1 | 0.00 | 0.00 | 0.00 | 52 | 1006.9 |
| 20260506141043 | 23 | 167 | 6.4 | 11.3 | 0.00 | 0.00 | 0.00 | 52 | 1007.0 |
| 20260506140100 | 23 | 193 | 6.4 | 17.7 | 0.00 | 0.00 | 0.00 | 50 | 1007.3 |
| 20260506135042 | 24 | 156 | 4.8 | 11.3 | 0.00 | 0.00 | 0.00 | 51 | 1007.4 |
| 20260506134053 | 23 | 167 | 1.6 | 9.7 | 0.00 | 0.00 | 0.00 | 52 | 1007.3 |
| 20260506133059 | 23 | 199 | 3.2 | 9.7 | 0.00 | 0.00 | 0.00 | 52 | 1007.6 |
| 20260506132035 | 22 | 146 | 4.8 | 9.7 | 0.00 | 0.00 | 0.00 | 53 | 1007.6 |
| 20260506131031 | 22 | 141 | 4.8 | 8.0 | 0.00 | 0.00 | 0.00 | 54 | 1007.6 |
| 20260506130048 | 23 | 168 | 1.6 | 8.0 | 0.00 | 0.00 | 0.00 | 54 | 1008.0 |
| 20260506125044 | 23 | 172 | 3.2 | 12.9 | 0.00 | 0.00 | 0.00 | 52 | 1008.0 |
| 20260506124020 | 23 | 162 | 3.2 | 9.7 | 0.00 | 0.00 | 0.00 | 53 | 1008.0 |
| 20260506123111 | 23 | 170 | 3.2 | 6.4 | 0.00 | 0.00 | 0.00 | 52 | 1008.0 |
| 20260506122020 | 23 | 279 | 0.0 | 1.6 | 0.00 | 0.00 | 0.00 | 51 | 1008.0 |
| 20260506121022 | 23 | 166 | 3.2 | 8.0 | 0.00 | 0.00 | 0.00 | 51 | 1008.0 |
| 20260506120036 | 23 | 100 | 1.6 | 6.4 | 0.00 | 0.00 | 0.00 | 51 | 1008.1 |
| 20260506115041 | 24 | 130 | 1.6 | 8.0 | 0.00 | 0.00 | 0.00 | 49 | 1008.1 |
| 20260506114027 | 24 | 162 | 0.0 | 1.6 | 0.00 | 0.00 | 0.00 | 48 | 1008.1 |
| 20260506113025 | 23 | 188 | 3.2 | 11.3 | 0.00 | 0.00 | 0.00 | 49 | 1008.4 |
| 20260506112057 | 23 | 177 | 1.6 | 4.8 | 0.00 | 0.00 | 0.00 | 50 | 1008.4 |
| 20260506111029 | 23 | 196 | 0.0 | 1.6 | 0.00 | 0.00 | 0.00 | 51 | 1008.4 |
| 20260506110111 | 23 | 237 | 1.6 | 11.3 | 0.00 | 0.00 | 0.00 | 50 | 1008.8 |
| 20260506105040 | 23 | 134 | 1.6 | 3.2 | 0.00 | 0.00 | 0.00 | 51 | 1008.8 |
| 20260506104044 | 23 | 186 | 1.6 | 6.4 | 0.00 | 0.00 | 0.00 | 51 | 1008.8 |
| 20260506103058 | 23 | 240 | 1.6 | 8.0 | 0.00 | 0.00 | 0.00 | 53 | 1008.7 |
| 20260506102048 | 23 | 217 | 1.6 | 8.0 | 0.00 | 0.00 | 0.00 | 52 | 1008.8 |
| 20260506101032 | 23 | 242 | 0.0 | 3.2 | 0.00 | 0.00 | 0.00 | 52 | 1008.7 |
| 20260506100033 | 23 | 254 | 3.2 | 6.4 | 0.00 | 0.00 | 0.00 | 52 | 1009.1 |
| 20260506095023 | 25 | 227 | 1.6 | 4.8 | 0.00 | 0.00 | 0.00 | 50 | 1009.2 |
| 20260506094025 | 24 | 236 | 0.0 | 3.2 | 0.00 | 0.00 | 0.00 | 52 | 1009.1 |
| 20260506093021 | 23 | 235 | 1.6 | 9.7 | 0.00 | 0.00 | 0.00 | 54 | 1009.4 |
| 20260506092119 | 22 | 265 | 1.6 | 8.0 | 0.00 | 0.00 | 0.00 | 56 | 1009.4 |
| 20260506091040 | 22 | 263 | 3.2 | 11.3 | 0.00 | 0.00 | 0.00 | 56 | 1009.4 |
| 20260506090029 | 22 | 237 | 3.2 | 9.7 | 0.00 | 0.00 | 0.00 | 56 | 1009.4 |
| 20260506085053 | 22 | 266 | 4.8 | 9.7 | 0.00 | 0.00 | 0.00 | 57 | 1009.4 |
| 20260506084041 | 22 | 277 | 3.2 | 9.7 | 0.00 | 0.00 | 0.00 | 58 | 1009.4 |
| 20260506083024 | 22 | 231 | 3.2 | 12.9 | 0.00 | 0.00 | 0.00 | 57 | 1009.4 |
| 20260506082028 | 21 | 258 | 3.2 | 8.0 | 0.00 | 0.00 | 0.00 | 57 | 1009.4 |
| 20260506081031 | 20 | 273 | 3.2 | 8.0 | 0.00 | 0.00 | 0.00 | 62 | 1009.0 |
| 20260506073035 | 21 | 224 | 1.6 | 6.4 | 0.00 | 0.00 | 0.00 | 61 | 1009.1 |
| 20260506072034 | 19 | 260 | 1.6 | 4.8 | 0.00 | 0.00 | 0.00 | 65 | 1009.1 |
| 20260506071019 | 21 | 268 | 4.8 | 12.9 | 0.00 | 0.00 | 0.00 | 64 | 1009.5 |
| 20260506062043 | 17 | 264 | 1.6 | 4.8 | 0.00 | 0.00 | 0.00 | 73 | 1009.4 |
| 20260506061038 | 16 | 260 | 1.6 | 4.8 | 0.00 | 0.00 | 0.00 | 74 | 1009.4 |